Vorticity
-10 -7 -6 -4 -0 -5 3 7 3 15 17 14 12 13 13 12 12 14 8 10 9 10 7 30 23 3 -5 2 5 -1 8 36 45 27 16 14 13 16 15 -2 11 10 5 -7 34 19 23 -3 -44 28 -31 15 8 13
0 7 -5 -10 1 9 10 15 10 8 7 8 9 9 6 7 9 9 9 8 8 9 -3 12 11 7 15 23 29 32 27 18 -18 -4 -11 5 2 -8 -16 -2 1 35 13 -10 -12 -35 -29 6 9 -12 2 18 24 9
35 23 14 18 19 17 17 16 16 17 17 18 18 18 19 18 17 15 15 12 14 10 18 40 7 -18 9 6 14 13 16 2 -6 10 13 26 17 13 -1 3 12 5 26 4 29 20 -7 15 23 31 -0 5 41 26
10 11 11 12 13 14 15 15 15 14 13 13 12 12 12 12 15 17 19 19 19 17 28 64 52 -53 -5 6 22 15 15 19 26 22 14 9 12 27 14 0 -5 8 9 18 18 36 28 -0 16 14 42 32 7 9
9 7 7 10 12 14 13 11 10 10 10 11 12 13 14 14 14 14 13 14 21 21 -0 11 16 30 24 13 12 29 5 6 10 9 9 13 16 28 29 19 27 26 21 -2 6 10 24 29 10 8 18 10 7 5
7 8 8 8 5 4 4 6 7 8 9 9 11 14 17 17 15 14 12 16 9 11 15 19 17 18 35 16 -2 10 18 22 25 20 15 16 27 15 17 3 21 6 10 10 12 10 12 18 6 4 3 3 10 14
6 7 8 9 8 7 5 4 5 7 9 10 11 12 13 14 15 14 10 10 14 7 3 19 38 7 -7 1 32 23 7 8 5 22 -1 15 24 6 11 17 14 0 10 10 9 13 -5 -10 -0 3 3 5 13 12
8 8 9 9 10 11 13 12 11 10 10 10 9 9 9 10 12 16 18 5 7 9 31 17 3 4 33 14 0 1 5 11 19 16 1 15 9 8 26 -3 2 14 14 10 13 12 -2 1 0 1 7 13 14 8
10 10 10 10 10 11 12 12 11 10 11 12 13 12 12 15 8 7 15 16 17 19 27 12 21 12 -6 1 5 13 20 18 12 8 7 20 1 8 0 18 10 16 12 12 6 -17 3 4 5 12 11 16 9 10
6 8 8 9 12 12 14 14 11 9 9 11 12 12 14 9 15 22 38 40 36 17 15 -1 1 6 6 5 11 31 21 3 14 20 20 4 15 21 7 16 4 13 4 2 -1 0 1 2 10 10 9 13 11 8
7 9 8 9 10 12 13 12 11 9 9 10 11 11 12 22 29 26 15 12 15 11 1 -4 2 -1 3 7 6 18 3 26 17 11 12 8 6 -1 7 10 4 7 -4 -3 -2 3 6 10 10 11 11 11 11 11
9 10 8 9 11 12 12 11 11 11 10 10 11 12 26 39 19 13 11 10 11 4 3 3 4 5 7 8 32 17 22 16 6 1 29 14 17 -7 9 12 1 -2 1 -6 -2 12 17 13 10 11 13 11 9 10
8 9 7 7 7 8 9 10 10 11 10 10 19 40 23 14 8 11 7 3 7 -3 0 3 7 7 16 18 11 34 13 7 8 31 11 12 5 8 -3 -5 -14 -6 2 -2 8 15 13 11 13 12 11 12 10 10
10 11 10 12 13 11 11 10 9 11 11 15 26 18 21 14 10 6 5 5 -3 -0 8 9 10 1 4 34 23 5 10 16 16 10 8 2 -2 8 -14 -5 0 4 9 10 15 16 12 11 9 9 9 11 11 11
10 13 12 12 12 12 11 11 11 9 10 17 31 16 1 -4 19 -4 -3 -7 -0 12 13 14 14 11 27 22 19 15 15 16 9 -7 -1 -3 -25 -8 6 -11 18 7 15 17 15 13 11 9 10 12 8 8 9 10
8 13 9 10 10 10 10 9 10 9 8 19 41 -15 14 -3 4 22 22 21 19 12 11 13 25 27 27 13 18 -5 2 -25 -16 -7 -12 -3 8 -0 2 13 1 16 6 13 14 13 14 14 14 14 14 15 14 13
7 11 8 10 11 11 11 11 10 10 28 4 -9 -10 20 18 15 17 9 14 12 9 9 21 12 17 5 21 18 -6 1 4 7 3 -4 -5 4 8 19 36 26 22 17 18 19 19 19 20 21 20 19 17 16 16
8 12 10 12 14 11 11 12 13 2 11 -0 5 7 17 17 14 11 12 17 13 12 12 12 18 0 -27 -16 -10 2 9 9 12 15 3 8 5 19 1 5 19 14 12 14 12 7 5 5 7 9 13 18 20 18
11 12 13 18 14 15 10 5 5 -0 9 -8 -2 13 10 7 11 16 14 24 15 11 7 9 15 -2 1 14 10 -2 11 11 15 15 20 25 16 10 14 11 19 20 17 14 13 12 9 8 8 10 10 7 9 14
16 9 10 23 11 8 5 11 13 14 -1 -4 3 5 8 12 17 12 15 10 8 10 8 4 3 15 17 16 9 2 5 9 8 6 7 7 12 17 9 8 17 18 11 7 7 5 3 5 7 6 8 10 11 9
18 18 19 15 11 15 8 8 -3 -23 -6 7 9 15 -2 7 15 28 13 7 9 14 15 6 10 9 10 13 16 18 4 21 2 13 5 12 15 11 8 9 13 8 1 5 6 9 10 9 12 9 8 8 8 8
13 14 12 12 9 9 6 10 13 11 17 -2 9 12 7 15 8 3 9 12 17 17 10 11 4 7 7 6 5 9 21 23 13 21 5 12 16 12 9 6 6 6 8 12 14 13 12 11 14 11 11 9 9 10
18 10 10 11 11 18 -0 28 18 6 10 -7 21 15 -3 5 6 8 16 -9 16 9 15 0 -1 2 9 9 12 16 13 29 13 5 8 8 8 6 4 3 8 10 12 16 19 18 17 18 19 18 17 17 16 15
16 9 10 20 25 1 8 3 5 12 2 11 6 2 14 12 6 16 7 19 9 13 21 16 12 5 18 17 15 17 8 4 4 4 6 4 10 22 25 22 20 21 23 22 22 21 19 19 19 21 21 21 20 20
34 26 58 31 6 27 29 31 22 31 24 27 34 23 11 20 26 44 17 28 41 51 17 5 22 23 18 11 0 -4 -3 -1 10 19 19 23 20 19 18 18 19 16 15 15 15 15 15 16 19 21 21 21 22 23
23 19 22 4 22 27 9 7 20 19 19 14 38 28 27 19 26 2 -0 -1 14 24 16 9 -0 -9 -10 -9 -3 12 20 20 18 19 21 24 24 22 17 15 15 14 15 17 18 17 17 16 15 15 15 13 12 12
23 4 8 15 1 1 8 7 7 12 26 36 22 25 32 22 17 15 14 -11 -18 -20 -18 -7 8 17 18 18 27 32 33 28 22 20 18 14 13 12 11 12 14 13 14 14 14 14 13 13 15 16 15 15 16 16
8 -10 -7 1 11 19 18 28 44 20 16 8 1 -10 -10 -22 -20 -12 -2 7 15 17 16 15 24 31 31 27 24 22 20 15 12 8 8 8 8 9 9 10 12 11 9 10 11 11 12 11 13 15 15 16 16 15
8 15 16 13 12 17 29 18 5 14 6 4 -4 0 17 23 15 12 10 11 19 27 30 27 24 23 23 17 11 9 6 8 9 8 10 11 10 7 10 11 13 13 13 13 13 11 11 11 12 13 13 15 14 12
17 16 16 17 17 17 8 11 8 15 15 16 16 18 21 23 21 23 26 25 24 25 23 18 11 7 6 5 10 7 7 6 5 16 23 24 26 26 25 23 20 18 16 16 15 13 12 14 14 12 11 11 11 12
15 15 14 12 13 14 16 17 19 21 23 20 24 23 19 19 24 28 28 18 15 14 13 10 8 6 8 8 12 12 12 9 17 23 17 14 14 14 15 16 19 20 19 17 15 16 14 12 13 15 13 12 11 12
19 14 13 11 15 18 19 11 14 19 24 25 29 35 30 19 -1 5 18 17 8 0 6 8 11 11 9 1 6 17 24 22 19 18 15 13 13 12 11 12 11 19 20 19 24 18 12 12 11 11 10 9 10 11
13 15 17 18 10 11 13 16 21 22 24 36 15 13 -3 8 17 20 12 -1 -3 12 8 3 1 1 11 17 17 17 16 16 17 17 16 16 14 14 15 15 16 8 11 18 17 18 13 11 10 10 11 11 12 12
Height
3126 3126 3127 3127 3126 3125 3123 3121 3119 3116 3114 3111 3108 3106 3103 3101 3098 3096 3094 3092 3090 3086 3087 3083 3079 3078 3076 3074 3070 3068 3067 3065 3062 3063 3061 3059 3054 3052 3048 3046 3047 3047 3047 3044 3039 3036 3032 3027 3024 3023 3019 3013 3009 3005
3124 3125 3125 3124 3123 3120 3118 3115 3113 3111 3107 3104 3102 3099 3096 3093 3091 3088 3085 3082 3080 3079 3079 3074 3070 3069 3067 3063 3062 3059 3061 3058 3057 3056 3055 3052 3051 3047 3045 3043 3043 3040 3041 3038 3037 3032 3029 3023 3019 3015 3010 3006 3003 2998
3123 3123 3122 3121 3119 3116 3114 3111 3108 3105 3101 3097 3094 3091 3089 3085 3082 3080 3076 3073 3071 3069 3068 3064 3061 3060 3058 3056 3054 3054 3053 3051 3048 3048 3046 3044 3043 3040 3038 3034 3031 3029 3029 3026 3026 3024 3020 3017 3013 3008 3002 2999 2995 2991
3123 3122 3120 3117 3115 3112 3110 3106 3103 3100 3097 3093 3090 3087 3083 3078 3075 3072 3068 3065 3063 3060 3058 3055 3052 3052 3051 3049 3046 3043 3044 3043 3042 3039 3037 3035 3034 3031 3028 3028 3026 3026 3022 3020 3017 3016 3011 3008 3003 3000 2997 2993 2989 2986
3122 3120 3118 3116 3113 3110 3107 3104 3100 3097 3093 3089 3085 3081 3076 3072 3068 3064 3061 3058 3056 3057 3053 3053 3049 3047 3045 3042 3041 3039 3038 3035 3034 3032 3029 3026 3026 3024 3021 3019 3016 3015 3014 3014 3011 3008 3006 3003 3000 2998 2994 2991 2988 2984
3121 3119 3116 3114 3112 3109 3106 3103 3098 3094 3089 3085 3080 3075 3071 3067 3063 3060 3057 3055 3051 3048 3046 3046 3046 3042 3039 3038 3037 3035 3032 3029 3026 3024 3023 3020 3019 3019 3014 3011 3011 3010 3010 3008 3006 3003 3000 3000 2998 2994 2991 2987 2984 2979
3119 3117 3114 3111 3108 3104 3101 3097 3093 3089 3085 3081 3076 3072 3067 3063 3060 3057 3054 3051 3047 3045 3042 3038 3039 3038 3036 3034 3034 3032 3027 3024 3023 3020 3018 3017 3015 3016 3010 3007 3007 3006 3005 3003 3001 3000 2999 2997 2993 2990 2986 2982 2977 2971
3116 3113 3110 3108 3105 3101 3097 3093 3089 3086 3081 3077 3072 3067 3063 3059 3055 3053 3049 3046 3043 3041 3039 3036 3034 3035 3034 3032 3030 3029 3026 3021 3019 3016 3014 3012 3012 3009 3006 3004 3003 3003 3001 2999 2997 2996 2994 2991 2988 2984 2978 2973 2969 2964
3112 3109 3105 3102 3098 3094 3090 3086 3083 3080 3076 3072 3068 3063 3059 3054 3050 3046 3042 3040 3039 3040 3034 3032 3031 3030 3030 3029 3026 3024 3021 3016 3014 3011 3008 3009 3006 3004 3003 3002 3000 2999 2998 2997 2995 2992 2989 2985 2980 2976 2970 2965 2960 2955
3107 3103 3099 3096 3092 3088 3085 3081 3078 3075 3071 3067 3063 3059 3054 3050 3044 3041 3034 3033 3032 3032 3032 3033 3032 3029 3027 3024 3021 3020 3015 3013 3008 3006 3004 3003 3001 3000 2999 2998 2997 2996 2994 2991 2988 2984 2980 2976 2972 2968 2962 2956 2951 2946
3102 3098 3094 3090 3086 3082 3079 3076 3072 3069 3066 3062 3058 3054 3050 3044 3040 3036 3035 3032 3034 3032 3030 3030 3028 3025 3023 3022 3019 3016 3012 3010 3006 3004 3002 2998 2996 2996 2995 2994 2993 2991 2989 2986 2982 2978 2973 2968 2963 2959 2954 2949 2944 2939
3098 3094 3088 3084 3081 3077 3073 3071 3067 3064 3060 3057 3053 3049 3044 3039 3036 3037 3034 3033 3032 3031 3029 3027 3026 3023 3020 3018 3015 3012 3009 3007 3002 2999 2998 2993 2992 2992 2991 2991 2989 2986 2983 2980 2976 2970 2964 2959 2954 2950 2946 2941 2935 2930
3091 3088 3083 3079 3076 3071 3067 3065 3062 3058 3054 3050 3047 3043 3040 3038 3037 3035 3034 3032 3031 3029 3027 3024 3022 3019 3017 3015 3012 3009 3005 3002 2999 2995 2991 2989 2988 2988 2986 2985 2984 2980 2975 2969 2965 2960 2955 2950 2946 2941 2937 2932 2927 2922
3086 3082 3078 3075 3071 3066 3063 3060 3057 3053 3049 3047 3044 3041 3038 3035 3034 3032 3031 3029 3028 3025 3022 3018 3017 3015 3013 3011 3009 3004 3000 2997 2993 2989 2985 2984 2983 2983 2981 2978 2974 2970 2966 2960 2955 2950 2946 2941 2937 2932 2927 2922 2918 2914
3080 3077 3072 3069 3065 3060 3057 3054 3051 3046 3044 3042 3042 3038 3034 3033 3032 3030 3028 3025 3022 3019 3015 3013 3011 3010 3007 3005 3002 2999 2995 2990 2985 2982 2981 2980 2978 2975 2972 2968 2964 2959 2954 2950 2945 2940 2936 2931 2926 2922 2917 2912 2907 2903
3070 3070 3065 3060 3056 3053 3049 3047 3045 3040 3036 3035 3033 3032 3030 3027 3026 3023 3020 3018 3015 3012 3010 3008 3005 3002 2999 2997 2993 2991 2987 2982 2981 2978 2975 2972 2969 2966 2962 2957 2952 2947 2943 2939 2934 2929 2925 2920 2915 2911 2907 2902 2897 2893
3061 3060 3057 3054 3050 3046 3043 3040 3037 3033 3029 3025 3024 3025 3022 3020 3018 3016 3013 3011 3008 3005 3003 3002 3000 2996 2993 2988 2984 2983 2980 2978 2975 2971 2966 2962 2959 2955 2951 2946 2941 2937 2933 2928 2924 2919 2915 2911 2906 2901 2896 2892 2888 2883
3054 3052 3048 3045 3041 3037 3035 3032 3029 3024 3018 3016 3015 3016 3013 3012 3009 3008 3006 3003 3000 2996 2994 2993 2991 2987 2983 2977 2975 2976 2972 2969 2966 2962 2958 2952 2948 2944 2940 2936 2932 2927 2923 2918 2914 2910 2907 2903 2898 2894 2888 2884 2880 2875
3043 3040 3039 3037 3033 3029 3025 3021 3017 3011 3008 3007 3005 3005 3004 3002 3001 2999 2996 2993 2990 2988 2986 2983 2980 2973 2971 2969 2967 2964 2961 2957 2954 2951 2947 2942 2938 2933 2930 2926 2922 2918 2913 2909 2905 2902 2898 2894 2889 2884 2880 2876 2872 2867
3033 3031 3030 3029 3027 3023 3016 3011 3008 3002 2996 2998 2996 2996 2994 2991 2990 2989 2987 2983 2980 2977 2974 2971 2967 2965 2962 2959 2956 2953 2950 2947 2944 2941 2937 2932 2928 2924 2920 2916 2912 2908 2905 2900 2896 2892 2889 2884 2879 2875 2870 2866 2862 2859
3020 3021 3019 3019 3015 3013 3007 3000 2995 2991 2990 2987 2985 2984 2981 2979 2978 2976 2975 2973 2969 2965 2961 2960 2957 2954 2951 2948 2946 2942 2938 2934 2930 2928 2925 2922 2918 2912 2909 2905 2902 2898 2895 2891 2887 2883 2878 2873 2869 2865 2861 2856 2852 2848
3011 3009 3006 3005 3003 2998 2990 2985 2985 2983 2981 2975 2973 2972 2969 2968 2966 2965 2962 2959 2956 2954 2951 2948 2946 2943 2939 2936 2932 2929 2926 2922 2918 2915 2911 2908 2905 2901 2898 2894 2890 2886 2882 2878 2874 2870 2865 2860 2856 2851 2847 2844 2840 2836
3002 3000 2996 2993 2990 2983 2978 2976 2974 2971 2968 2963 2963 2959 2956 2954 2953 2952 2948 2945 2943 2941 2939 2937 2934 2931 2928 2924 2920 2916 2913 2910 2907 2904 2901 2897 2893 2889 2885 2881 2876 2871 2867 2863 2858 2854 2849 2845 2841 2837 2833 2830 2826 2824
2992 2988 2984 2978 2973 2968 2964 2962 2959 2957 2954 2951 2949 2946 2943 2943 2940 2937 2933 2931 2929 2927 2925 2922 2920 2918 2915 2912 2909 2906 2903 2899 2896 2892 2888 2884 2880 2876 2871 2866 2861 2857 2853 2848 2844 2841 2836 2832 2828 2824 2820 2817 2814 2811
2981 2976 2971 2964 2960 2956 2952 2948 2945 2943 2940 2939 2937 2935 2929 2928 2926 2923 2920 2917 2915 2914 2912 2911 2909 2906 2905 2902 2899 2896 2892 2888 2884 2880 2874 2871 2867 2863 2858 2854 2850 2846 2843 2839 2836 2832 2828 2824 2820 2816 2811 2807 2804 2801
2970 2964 2962 2954 2950 2948 2944 2942 2939 2936 2931 2930 2930 2928 2925 2923 2920 2918 2915 2913 2911 2909 2906 2904 2902 2899 2895 2892 2889 2885 2881 2877 2872 2868 2863 2859 2856 2852 2849 2846 2843 2839 2834 2830 2826 2822 2819 2816 2812 2808 2805 2801 2797 2794
2959 2954 2951 2948 2946 2943 2941 2937 2934 2931 2928 2926 2923 2922 2920 2918 2913 2912 2909 2907 2905 2903 2900 2896 2893 2889 2885 2881 2877 2873 2869 2865 2862 2859 2855 2851 2848 2844 2841 2837 2833 2830 2826 2822 2818 2814 2809 2806 2803 2800 2797 2794 2789 2786
2952 2948 2946 2943 2939 2935 2933 2930 2928 2926 2923 2921 2919 2918 2917 2914 2911 2907 2904 2900 2896 2893 2890 2886 2882 2879 2875 2871 2868 2864 2861 2858 2855 2852 2848 2844 2840 2836 2832 2828 2824 2821 2817 2813 2809 2806 2803 2799 2796 2793 2790 2787 2784 2780
2948 2944 2941 2937 2933 2930 2927 2925 2922 2920 2917 2915 2912 2909 2906 2903 2900 2896 2892 2889 2885 2882 2879 2876 2872 2869 2865 2862 2859 2856 2853 2850 2847 2844 2840 2837 2833 2829 2822 2819 2815 2812 2809 2806 2804 2800 2796 2793 2790 2787 2784 2781 2778 2775
2941 2938 2935 2931 2928 2925 2923 2920 2916 2913 2909 2906 2901 2898 2895 2891 2888 2885 2882 2879 2877 2874 2871 2868 2866 2864 2861 2858 2856 2854 2849 2842 2837 2833 2827 2824 2821 2817 2813 2809 2806 2802 2799 2797 2795 2794 2791 2788 2786 2783 2780 2777 2774 2771
2935 2932 2928 2925 2922 2918 2914 2911 2907 2903 2900 2896 2892 2888 2885 2882 2880 2877 2875 2873 2871 2868 2866 2864 2862 2858 2855 2851 2846 2840 2838 2836 2829 2824 2819 2815 2812 2808 2804 2801 2797 2793 2791 2788 2787 2785 2783 2782 2779 2777 2774 2772 2769 2766
2930 2926 2922 2918 2915 2911 2907 2903 2898 2894 2890 2887 2883 2880 2879 2877 2876 2874 2872 2869 2867 2865 2862 2859 2855 2852 2848 2843 2838 2833 2826 2821 2817 2814 2810 2807 2803 2800 2797 2793 2790 2786 2783 2780 2779 2778 2776 2775 2773 2770 2768 2766 2764 2762
2926 2922 2918 2913 2909 2904 2900 2896 2891 2887 2884 2881 2880 2879 2877 2876 2873 2871 2869 2866 2864 2860 2856 2852 2848 2843 2838 2832 2827 2822 2817 2813 2808 2804 2801 2798 2795 2792 2789 2786 2783 2778 2775 2773 2772 2770 2769 2767 2766 2764 2762 2760 2758 2756